SCP
0 0 0 0 0 0 0 0 0 0 0 0 0 0 0 0 0 0 0 0 0 0 0 0 0 0 0
0 0 0 0 0 0 0 0 0 0 0 0 0 0 0 0 0 0 0 0 0 0 0 0 0 0 0
0 0 0 0 0 0 0 0 0 0 0 0 0 0 0 0 0 0 0 0 0 0 -0 0 -0 0 0
0 0 0 0 0 0 0 0 0 0 0 0 0 0 0 0 0 0 0 0 -0 -0 -0 -0 0 0 0
0 0 0 0 0 0 0 0 0 0 0 0 0 0 0 0 0 0 0 -0 -0 -0 -0 -0 0 0 0
0 0 0 0 0 0 0 0 0 0 0 0 1 0 0 0 0 0 0 0 0 -0 0 0 0 0 0
0 0 0 0 0 0 0 0 0 0 0 0 0 0 0 0 0 0 0 0 0 0 0 0 0 0 0
0 0 0 0 0 0 0 0 0 0 0 1 0 0 0 0 0 0 0 0 0 0 0 0 0 0 0
0 0 0 0 0 0 0 0 0 0 0 0 0 0 0 0 0 0 0 0 0 0 0 0 0 0 0
0 0 0 0 -0 0 0 0 0 0 0 0 0 0 0 0 0 0 0 0 0 0 0 0 0 0 0
0 0 0 0 -0 0 0 0 0 0 0 0 0 0 0 0 0 0 0 0 0 0 0 0 0 0 0
0 0 0 0 0 0 0 0 0 0 0 0 0 0 0 0 0 0 0 0 0 0 0 0 0 0 0
0 0 0 0 0 0 0 0 0 0 0 0 0 0 0 0 0 0 0 0 0 0 0 0 0 0 0
0 0 0 0 0 0 0 0 0 0 0 0 0 0 0 0 0 0 0 0 0 0 0 0 0 0 0
0 0 0 0 0 0 0 0 0 0 0 0 0 0 0 0 0 0 0 0 0 0 0 0 0 0 0
0 0 0 0 0 0 0 0 0 0 0 0 0 0 0 0 0 0 0 0 0 0 0 0 0 0 0
Wind_Speed_500mb
13 27 25 22 23 26 26 24 25 25 28 31 34 36 36 31 25 18 16 16 15 14 16 17 20 24 14
13 22 32 26 28 30 29 30 31 28 26 30 34 39 41 34 25 20 16 16 13 14 15 15 17 20 12
19 24 30 33 29 33 31 30 34 33 29 28 35 42 48 43 31 25 21 16 19 16 15 15 14 9 10
22 28 34 26 39 29 35 35 34 31 24 31 38 46 50 48 42 30 24 24 21 18 15 15 12 12 9
17 23 35 37 50 38 29 44 33 32 29 36 39 44 46 45 35 31 33 29 20 13 13 12 13 12 5
24 20 22 35 55 56 60 49 41 37 38 41 45 47 49 49 36 41 34 24 23 20 14 12 9 8 7
30 25 28 31 36 49 65 55 42 39 38 44 48 53 53 48 38 37 36 34 29 24 18 11 6 4 2
34 26 29 34 33 42 60 68 51 45 42 48 52 56 51 55 47 42 42 36 29 24 18 13 8 4 6
33 29 30 34 41 39 60 61 61 67 50 49 55 56 52 52 43 45 44 39 30 26 21 16 12 9 11
32 29 25 27 34 38 52 65 73 66 51 50 54 57 51 49 42 41 45 43 37 27 23 19 19 17 16
31 27 25 20 31 36 43 62 59 58 50 56 49 52 51 48 50 45 45 43 38 32 24 21 23 24 22
28 26 27 17 22 24 31 44 49 46 49 47 50 44 51 49 39 40 44 43 32 29 25 30 25 24 26
28 20 21 20 18 17 9 44 41 44 46 42 38 45 46 45 43 42 39 38 38 30 26 26 27 27 25
32 19 19 18 18 8 21 31 36 39 41 43 40 45 45 43 42 39 41 36 30 33 28 21 6 7 15
31 22 15 9 12 15 18 21 40 44 44 42 46 43 44 47 43 44 38 35 33 31 28 15 4 9 6
27 20 15 7 14 14 9 26 39 37 43 42 43 44 49 50 46 44 40 37 30 27 26 23 25 21 5
Wind_Direction_500mb
284 200 196 201 223 228 223 223 218 215 215 217 214 211 203 199 174 159 135 133 125 127 136 143 143 131 123
202 210 201 225 227 232 227 227 223 217 215 218 213 208 204 194 184 160 147 130 129 130 128 127 129 131 142
236 218 226 225 230 238 230 222 225 223 227 215 211 207 203 191 183 165 156 162 135 140 127 122 122 121 129
247 244 236 231 241 236 235 224 223 219 218 220 208 209 205 193 189 159 172 168 161 147 136 130 111 128 121
286 257 247 234 238 250 249 227 226 218 203 212 211 206 208 195 188 176 182 175 141 164 144 118 139 114 107
305 300 270 255 244 235 264 236 220 222 210 209 210 205 207 198 194 187 186 174 178 175 158 136 125 102 84
306 309 297 266 256 244 233 242 225 225 214 207 209 207 206 200 207 195 194 184 190 179 176 176 150 119 47
298 300 296 286 267 254 236 231 231 229 213 212 208 203 204 209 205 203 200 198 194 191 193 199 217 243 268
303 299 288 296 254 264 229 223 212 213 215 211 206 206 216 206 204 202 205 203 209 205 206 215 241 269 280
302 297 290 286 282 286 222 216 209 214 210 204 204 204 203 212 208 203 209 207 212 216 223 237 253 267 282
295 296 288 299 290 274 201 205 195 188 204 199 199 202 201 201 210 208 207 211 216 219 218 239 251 263 278
307 295 289 287 290 262 185 194 187 187 194 197 196 194 200 204 199 205 209 209 209 215 219 237 259 274 280
322 298 284 271 278 250 277 164 173 188 202 195 194 200 203 202 201 207 204 205 211 217 226 245 253 261 270
328 318 304 290 270 253 223 201 199 210 203 202 204 203 206 205 210 211 209 210 214 221 230 236 248 262 264
337 332 305 314 266 247 155 191 201 218 218 212 210 212 210 209 209 213 217 215 216 221 222 214 192 236 207
344 343 325 283 273 247 219 170 202 224 221 221 221 223 215 210 211 216 216 220 219 216 214 235 237 241 270
Wind_Speed_850mb
13 27 25 22 23 26 26 24 25 25 28 31 34 36 36 31 25 18 16 16 15 14 16 17 20 24 14
13 22 32 26 28 30 29 30 31 28 26 30 34 39 41 34 25 20 16 16 13 14 15 15 17 20 12
19 24 30 33 29 33 31 30 34 33 29 28 35 42 48 43 31 25 21 16 19 16 15 15 14 9 10
22 28 34 26 39 29 35 35 34 31 24 31 38 46 50 48 42 30 24 24 21 18 15 15 12 12 9
17 23 35 37 50 38 29 44 33 32 29 36 39 44 46 45 35 31 33 29 20 13 13 12 13 12 5
24 20 22 35 55 56 60 49 41 37 38 41 45 47 49 49 36 41 34 24 23 20 14 12 9 8 7
30 25 28 31 36 49 65 55 42 39 38 44 48 53 53 48 38 37 36 34 29 24 18 11 6 4 2
34 26 29 34 33 42 60 68 51 45 42 48 52 56 51 55 47 42 42 36 29 24 18 13 8 4 6
33 29 30 34 41 39 60 61 61 67 50 49 55 56 52 52 43 45 44 39 30 26 21 16 12 9 11
32 29 25 27 34 38 52 65 73 66 51 50 54 57 51 49 42 41 45 43 37 27 23 19 19 17 16
31 27 25 20 31 36 43 62 59 58 50 56 49 52 51 48 50 45 45 43 38 32 24 21 23 24 22
28 26 27 17 22 24 31 44 49 46 49 47 50 44 51 49 39 40 44 43 32 29 25 30 25 24 26
28 20 21 20 18 17 9 44 41 44 46 42 38 45 46 45 43 42 39 38 38 30 26 26 27 27 25
32 19 19 18 18 8 21 31 36 39 41 43 40 45 45 43 42 39 41 36 30 33 28 21 6 7 15
31 22 15 9 12 15 18 21 40 44 44 42 46 43 44 47 43 44 38 35 33 31 28 15 4 9 6
27 20 15 7 14 14 9 26 39 37 43 42 43 44 49 50 46 44 40 37 30 27 26 23 25 21 5
Wind_Direction_850mb
284 200 196 201 223 228 223 223 218 215 215 217 214 211 203 199 174 159 135 133 125 127 136 143 143 131 123
202 210 201 225 227 232 227 227 223 217 215 218 213 208 204 194 184 160 147 130 129 130 128 127 129 131 142
236 218 226 225 230 238 230 222 225 223 227 215 211 207 203 191 183 165 156 162 135 140 127 122 122 121 129
247 244 236 231 241 236 235 224 223 219 218 220 208 209 205 193 189 159 172 168 161 147 136 130 111 128 121
286 257 247 234 238 250 249 227 226 218 203 212 211 206 208 195 188 176 182 175 141 164 144 118 139 114 107
305 300 270 255 244 235 264 236 220 222 210 209 210 205 207 198 194 187 186 174 178 175 158 136 125 102 84
306 309 297 266 256 244 233 242 225 225 214 207 209 207 206 200 207 195 194 184 190 179 176 176 150 119 47
298 300 296 286 267 254 236 231 231 229 213 212 208 203 204 209 205 203 200 198 194 191 193 199 217 243 268
303 299 288 296 254 264 229 223 212 213 215 211 206 206 216 206 204 202 205 203 209 205 206 215 241 269 280
302 297 290 286 282 286 222 216 209 214 210 204 204 204 203 212 208 203 209 207 212 216 223 237 253 267 282
295 296 288 299 290 274 201 205 195 188 204 199 199 202 201 201 210 208 207 211 216 219 218 239 251 263 278
307 295 289 287 290 262 185 194 187 187 194 197 196 194 200 204 199 205 209 209 209 215 219 237 259 274 280
322 298 284 271 278 250 277 164 173 188 202 195 194 200 203 202 201 207 204 205 211 217 226 245 253 261 270
328 318 304 290 270 253 223 201 199 210 203 202 204 203 206 205 210 211 209 210 214 221 230 236 248 262 264
337 332 305 314 266 247 155 191 201 218 218 212 210 212 210 209 209 213 217 215 216 221 222 214 192 236 207
344 343 325 283 273 247 219 170 202 224 221 221 221 223 215 210 211 216 216 220 219 216 214 235 237 241 270